Regional Weather Roundup
Issued by NWS Cleveland, OH

Home | Current Version | Previous Version | Graphics & Text | Print | Product List | Glossary On
Versions: 1 2 3 4 5 6 7 8 9 10 11 12 13 14 15 16 17 18 19 20 21 22 23 24 25 26 27 28 29 30 31 32 33 34 35 36 37 38 39 40 41 42 43 44 45 46 47 48 49 50
297
ASUS41 KCLE 062202
RWRCLE
OHIO REGIONAL WEATHER ROUNDUP
NATIONAL WEATHER SERVICE CLEVELAND, OH
500 PM EST SAT FEB 06 2016

NOTE: "FAIR" INDICATES FEW OR NO CLOUDS BELOW 12,000 FEET WITH NO
SIGNIFICANT WEATHER AND/OR OBSTRUCTIONS TO VISIBILITY.

OHZ001>008-015>018-024>027-034-035-043-044-062300-
   NORTHWEST OHIO

CITY           SKY/WX    TMP DP  RH WIND       PRES   REMARKS
DEFIANCE       CLEAR     38  22  52 SW10      30.21S
FINDLAY        CLEAR     38  22  52 SW8       30.20F
TOLEDO EXPRESS CLEAR     37  22  54 SW13      30.19F
TOLEDO EXEC    CLEAR     37  22  54 SW14      30.21S
LIMA           CLEAR     38  22  52 SW8       30.21S
$$

OHZ009>014-019>023-028>033-038-089-062300-
   NORTHEAST OHIO

CITY           SKY/WX    TMP DP  RH WIND       PRES   REMARKS
CLE-HOPKINS    CLEAR     39  21  48 SW14      30.23S
CLE-LAKEFRONT  CLEAR     35  25  66 NW3       30.21S
CUY CO. ARPT   CLEAR     36  25  64 NW8       30.21R
LORAIN-ELYRIA  CLEAR     37  22  54 W14       30.22R
ASHTABULA      CLEAR     36  22  56 NW3       30.19F
AKRON-CANTON   PTCLDY    39  16  39 W12       30.20R
WOOSTER        CLEAR     38  20  48 S10       30.20S
MANSFIELD      CLEAR     37  20  50 SW13      30.20S
YOUNGSTOWN     PTCLDY    38  17  42 SW9       30.19S
$$

OHZ042-051>053-060>062-070>072-077>081-062300-
  SOUTHWEST OHIO

CITY           SKY/WX    TMP DP  RH WIND       PRES   REMARKS
CINC-COVINGTON MOSUNNY   46  23  40 W10       30.24
CINC-LUNKEN    SUNNY     46  23  40 W7        30.26S
HAMILTON       SUNNY     46  23  40 W7        30.26S
DAYTON         PTCLDY    41  21  44 W13       30.24S
WRIGHT-PAT AFB CLEAR     43  19  37 SW8       30.23F
DAYTON GENERAL SUNNY     44  20  38 W9        30.23S
WILMINGTON     CLEAR     42  20  41 W10       30.24R
$$

OHZ036-037-039>041-045>050-054>059-063>069-073>076-082>088-062300-
  CENTRAL AND SOUTHEAST OHIO

CITY           SKY/WX    TMP DP  RH WIND       PRES   REMARKS
COLUMBUS       PTCLDY    41  14  33 SW9       30.24R
OSU AIRPORT    CLEAR     41  18  39 SW8       30.23S
BOLTON FIELD   CLEAR     41  19  42 SW8       30.24S
RICKENBACK AFB NOT AVBL
NEWARK         CLEAR     42  14  32 SW12      30.23R
MARION         CLEAR     39  17  41 W8        30.23R
LANCASTER      CLEAR     42  16  34 W9        30.25R
ZANESVILLE     CLEAR     44  11  26 W8        30.23S
NEW PHILLY     CLEAR     41  15  35 VRB7      30.23R
$$




USA.gov is the U.S. government's official web portal to all federal, state and local government web resources and services.